Regional Weather Roundup
Issued by NWS

Home | Current Version | Previous Version | Graphics & Text | Print | Product List | Glossary Off
Versions: 1 2 3 4 5 6 7 8 9 10 11 12 13 14 15 16 17 18 19 20 21 22 23 24 25 26 27 28 29 30 31 32 33 34 35 36 37 38 39 40 41 42 43 44 45 46 47 48 49 50

000
ASUS43 KTOP 270408
RWRKS

WEATHER ROUNDUP FOR KANSAS
NATIONAL WEATHER SERVICE GOODLAND KS
1100 PM CDT THU MAY 26 2016

NOTE:  "FAIR" INDICATES FEW OR NO CLOUDS BELOW 12,000 FEET WITH NO
SIGNIFICANT WEATHER AND/OR OBSTRUCTIONS TO VISIBILITY.

KSZ001>006-013>018-027>032-041>047-270500-
NORTHWEST KANSAS

CITY           SKY/WX    TMP DP  RH WIND       PRES   REMARKS
HAYS           CLOUDY    34 N/A N/A N13G28    29.75R THUNDER WCI  25
HILL CITY      CLOUDY    59  55  87 N25G36    29.71F
RUSSELL        RAIN      58  56  93 E18G35    29.75R
$$

KSZ061>065-074>080-084>089-270500-
SOUTHWEST KANSAS

CITY           SKY/WX    TMP DP  RH WIND       PRES   REMARKS
DODGE CITY     CLOUDY    66  55  67 S10       29.65R
ELKHART          N/A     59  42  53 NW12        N/A
GARDEN CITY    CLEAR     57  47  69 N17G26    29.70R
GREAT BEND     CLOUDY    59  52  77 E16G28    29.69R
LIBERAL        CLEAR     61  41  48 NW18G25   29.71R
PRATT          CLOUDY    59  55  85 E10       29.64F
$$

KSZ066>073-081>083-090>101-270500-
SOUTHEAST KANSAS

CITY           SKY/WX    TMP DP  RH WIND       PRES   REMARKS
CHANUTE        CLEAR     71  65  81 NE6       29.81R
COFFEYVILLE    CLOUDY    71  65  81 SE8       29.77R
HUTCHINSON     TSTM      60  57  89 SW12G29   29.85R FOG
MEDICINE LODGE   N/A     64  59  83 SE9       29.73R
NEWTON         CLOUDY    63  57  82 E12G20    29.84R
PARSONS        CLOUDY    72  65  78 SE7       29.78R
WICHITA INTL   CLOUDY    76  65  68 E9G18     29.78R
WICHITA JABRA  CLOUDY    66  62  87 NE10      29.79R
WICHITA MCCONL CLOUDY    72  64  78 E12       29.79R
WINFIELD       CLOUDY    73  61  65 S17G24    29.76R
$$

KSZ007>012-019>026-033>040-048>060-102>105-270500-
NORTHEAST KANSAS

CITY           SKY/WX    TMP DP  RH WIND       PRES   REMARKS
CONCORDIA      RAIN      61  59  93 VRB5      29.85R FOG
EMPORIA        CLOUDY    63  60  90 E13G20    29.84S
LAWRENCE       LGT RAIN  62  61  96 E7        29.87F
MANHATTAN      TSTM      60  57  89 SW14G26   29.89R VSB 3/4
MARYSVILLE     TSTM      61  59  94 E21G30    29.82R
OLATHE IND     HVY RAIN  62  61  96 N10       29.88R FOG
OLATHE EXE     LGT RAIN  62  60  93 NE20G29   29.85F
SALINA         TSTM      59  58  96 E9        29.84S FOG
TOPEKA BILLARD RAIN      63  61  93 E10       29.85F FOG
TOPEKA FORBES  RAIN      63  61  93 E8        29.87S FOG
$$



USA.gov is the U.S. government's official web portal to all federal, state and local government web resources and services.